Regional Weather Roundup
Issued by NWS

Home | Current Version | Previous Version | Graphics & Text | Print | Product List | Glossary On
Versions: 1 2 3 4 5 6 7 8 9 10 11 12 13 14 15 16 17 18 19 20 21 22 23 24 25 26 27 28 29 30 31 32 33 34 35 36 37 38 39 40 41 42 43 44 45 46 47 48 49 50
000
ASUS43 KLOT 301406
RWRIL

ILLINOIS REGIONAL WEATHER ROUNDUP
NATIONAL WEATHER SERVICE CHICAGO/ROMEOVILLE IL
900 AM CDT THU OCT 30 2014

NOTE: "FAIR" INDICATES FEW OR NO CLOUDS BELOW 12,000 FEET WITH NO
SIGNIFICANT WEATHER AND/OR OBSTRUCTIONS TO VISIBILITY.

* THESE STATIONS ARE NOT UNDER NWS QUALITY CONTROL. THEY ALSO MAY NOT
  REPORT WEATHER SUCH AS PRECIPITATION OR FOG.

ILZ001-002-007-009-015-016-024-301500-
NORTHWEST ILLINOIS

CITY           SKY/WX    TMP DP  RH WIND       PRES   REMARKS
MOLINE         CLOUDY    40  34  79 CALM      30.11R
STERLING*      MOSUNNY   37  30  75 CALM      30.12S
SAVANNA*       PTSUNNY   37  34  89 CALM      30.12S
$$

ILZ003-004-008-010-011-017-018-301500-
NORTH CENTRAL ILLINOIS

CITY           SKY/WX    TMP DP  RH WIND       PRES   REMARKS
ROCKFORD       CLOUDY    36  32  85 CALM      30.14S
FREEPORT*      CLOUDY    37  33  87 CALM      30.13S
ROCHELLE*      PTSUNNY   37  34  89 CALM      30.13S
DE KALB*       PTSUNNY   35  32  90 S5        30.13F WCI  31
PERU*          PTSUNNY   37  34  90 S3        30.14S
$$

ILZ005-006-012>014-019>023-301500-
NORTHEAST ILLINOIS

CITY           SKY/WX    TMP DP  RH WIND       PRES   REMARKS
CHICAGO-OHARE  PTSUNNY   39  33  79 SW3       30.14R
CHICAGO-MIDWAY PTSUNNY   41  35  79 S5        30.15R
AURORA         PTSUNNY   35  31  85 CALM      30.14S
LANSING*       MOSUNNY   36  35  94 CALM      30.16S
JOLIET*        PTSUNNY   37  35  92 CALM      30.16R
WAUKEGAN       MOSUNNY   39  33  79 SW7       30.13R WCI  34
DUPAGE AIRPORT PTSUNNY   36  33  89 S3        30.13S
WHEELING       MOSUNNY   39  33  79 S3        30.16R
MORRIS*        PTSUNNY   35  35  97 CALM      30.15R
ROMEOVILLE*    PTSUNNY   37  37 100 CALM      30.15R
NORTHERLY ISL    N/A     43  33  68 S5          N/A
$$

LMZ740>746-301500-
SOUTHERN LAKE MICHIGAN

STATION/POSITION SKY/WX   TEMP    WIND        PRES    VSBY  WAVE
                          AIR SEA DIR/SP/G                  HT/PER
                          (F)     (DEG/KT/KT) (MB)    (MI)  (FT/S)
SOUTHERN BUOY              48 53  230/ 10/ 12 1020.3R         1/ 5
WAUKEGAN HARBOR            41     240/  7/  9   N/A
HARRISON CRIB              44     200/ 10/ 11   N/A
BURNHAM HARBOR             43     240/  3/  6   N/A
CALUMET HARBOR             41     190/  3/  5 1019.6F
MICHIGAN CITY              44     180/  9/ 11   N/A
$$

ILZ025>027-034>036-040-047-049-050-058-095>099-301500-
WEST-CENTRAL ILLINOIS

CITY           SKY/WX    TMP DP  RH WIND       PRES   REMARKS
QUINCY         PTSUNNY   45  36  70 S9        30.10S
GALESBURG*     CLOUDY    39  36  88 S3        30.12S
MACOMB*        CLOUDY    39  36  88 SE5       30.14S
JACKSONVILLE*  PTSUNNY   46  38  76 S8        30.13F
PITTSFIELD*    MOSUNNY   45  39  81 S7        30.13R
$$

ILZ028>032-037-038-041>044-048-051>054-059>061-301500-
CENTRAL ILLINOIS

CITY           SKY/WX    TMP DP  RH WIND       PRES   REMARKS
PONTIAC        PTSUNNY   37  35  92 SE3       30.16S
BLOOMINGTON    PTSUNNY   39  36  89 S7        30.15S WCI  34
DECATUR        MOSUNNY   42  36  79 S6        30.16S
PEORIA         PTSUNNY   41  36  82 S6        30.14S
LACON*         PTSUNNY   38  35  88 CALM      30.13S
LINCOLN*       MOSUNNY   38  37  94 S3        30.15S
SPRINGFIELD    SUNNY     44  37  76 S8        30.15S
TAYLORVILLE    MOSUNNY   41  36  81 S7        30.16R
$$

ILZ033-039-045-046-055>057-062-063-301500-
EAST-CENTRAL ILLINOIS

CITY           SKY/WX    TMP DP  RH WIND       PRES   REMARKS
CHAMPAIGN      SUNNY     42  37  82 S7        30.16S
DANVILLE*      SUNNY     38  36  89 CALM      30.15R
RANTOUL*       MOSUNNY   40  36  84 SW3       30.16S
MATTOON        SUNNY     42  37  82 S6        30.17R
PARIS*         SUNNY     40  38  96 CALM      30.17F
$$

ILZ079-100>102-301500-
SOUTHWEST ILLINOIS

CITY           SKY/WX    TMP DP  RH WIND       PRES   REMARKS
ALTON          PTSUNNY   41  39  93 SE7       30.15S
BELLEVILLE     SUNNY     41  41  99 SE5       30.15F
CAHOKIA*       SUNNY     44  39  82 SE5       30.15S
SPARTA*        SUNNY     40  38  89 SE5       30.18S
$$

ILZ064>066-069>071-074>076-080>082-084>086-088>090-092>094-301500-
SOUTH-CENTRAL ILLINOIS

CITY           SKY/WX    TMP DP  RH WIND       PRES   REMARKS
CARBONDALE     SUNNY     40  38  93 CALM      30.18S
CAIRO*         SUNNY     45  42  91 CALM      30.19R
EFFINGHAM*       N/A     41  38  91 CALM      30.18R
MARION         SUNNY     45  41  87 SE6       30.19S
MT. VERNON     SUNNY     39  36  87 CALM      30.18F
CENTRALIA*     SUNNY     45  37  72 SE7       30.17S
SALEM*         SUNNY     45  39  81 SE3       30.17F
METROPOLIS*    SUNNY     43  43 100 CALM      30.18S
$$

ILZ067-068-072-073-078-083-087-091-301500-
SOUTHEAST ILLINOIS

CITY           SKY/WX    TMP DP  RH WIND       PRES   REMARKS
LAWRENCEVILLE  SUNNY     41  32  70 CALM      30.19S
FLORA*         SUNNY     40  39  97 CALM      30.19S
FAIRFIELD*     SUNNY     42  39  88 CALM      30.18S
HARRISBURG*    SUNNY     39  39 100 CALM      30.20S
ROBINSON*      SUNNY     40  40 100 CALM      30.19S
CARMI*         SUNNY     43  43 100 CALM      30.19R
$$

ABBREVIATIONS USED IN REMARKS
   TC - TEMPERATURE IN CELSIUS
  WCI - WIND CHILL INDEX
   HX - HEAT INDEX
  VSB - VISIBILITY
$$




USA.gov is the U.S. government's official web portal to all federal, state and local government web resources and services.